Zurück zum Katalog

CZ-6A DEB

AktivPO
NORAD 60674·DEBRIS·🇨🇳 China

Gestartet Aug 6, 2024 von Taiyuan Satellite Launch Center

Loading…

Nächste Überflüge (nächste 24 Stunden)

TLE

AktuellSource: Space-Track

Epoche: Sep 14, 2026, 10:36 UTC

1 60674U 24140CB  26257.44177902  .00000480  00000-0  83084-4 0  9999
2 60674  89.0032 259.3842 0142813 289.2189  69.3617 14.60256864111779

Verfolge CZ-6A DEB in Echtzeit mit AllMySat

Download on the App Store